Lid_Strength_Index
0 0 0 -0 -0 -0 -0 -0 0 1 1 1 0 0 0 0 -0 -0 -1 -1 -1 -1 -1 -1 -2 -2 -2 -2 -2 -2 -1 -1 -1 -1 -1 -1 -1 -1 -1 -2 -1 -1 -1
0 0 0 0 0 -0 -0 0 1 1 1 1 1 0 0 -0 -0 -1 -1 -1 -1 -2 -2 -2 -2 -2 -2 -2 -2 -2 -1 -1 -1 -1 -1 -1 -1 -1 -1 -1 -1 -1 -1
1 1 1 1 1 0 -0 1 1 1 2 2 1 0 0 -0 0 0 -0 -1 -1 -1 -2 -2 -2 -2 -2 -2 -2 -2 -1 -1 -1 -1 -1 -1 -1 -1 -1 -1 -1 -1 -1
0 1 1 1 1 1 0 2 1 1 2 1 1 1 1 1 0 -0 -1 -0 -1 -1 -1 -2 -2 -2 -2 -2 -2 -2 -1 -1 -1 -1 -1 -1 -1 -1 -1 -1 -1 -1 -1
1 1 2 2 1 0 2 2 2 2 2 1 1 1 1 1 1 0 -0 -0 -0 -1 -1 -1 -2 -2 -2 -2 -1 -1 -1 -1 -1 -1 -1 -1 -1 -1 -1 -1 -1 -1 -1
1 2 2 2 1 2 2 2 2 2 2 2 2 2 1 1 1 1 0 -0 -0 -1 -1 -1 -1 -1 -2 -2 -2 -2 -1 -1 -1 -1 -1 -1 -1 -1 -1 -1 -1 -1 -1
1 2 2 2 2 3 2 2 2 2 3 2 2 2 2 1 1 1 0 0 -0 -0 -1 -1 -1 -1 -1 -2 -1 -2 -1 -1 -1 -1 -1 -1 -1 -1 -1 -1 -1 -1 -0
2 2 2 2 2 3 2 2 2 2 2 1 3 3 5 3 2 1 1 0 0 -0 -0 -0 -1 -1 -1 -1 -1 -1 -1 -1 -1 -1 -1 -1 -1 -1 -1 -1 -1 -0 0
2 2 2 3 3 2 2 2 1 2 3 2 2 3 6 6 4 3 2 1 0 1 -0 -0 -1 -1 -1 -1 -1 -1 -1 -1 -1 -1 -1 -1 -1 -1 -1 -1 -1 -0 -0
2 2 2 2 1 2 2 2 2 2 2 3 2 2 3 3 5 6 2 1 1 1 1 -0 -0 -1 -1 -1 -1 -1 -1 -1 -1 -1 -1 -1 -1 -1 -1 -1 -0 -1 -0
1 2 1 1 2 2 2 2 2 2 2 3 2 2 2 2 3 4 6 4 2 1 1 1 0 -0 -1 -1 -1 -1 -0 0 -0 -1 -1 -1 -1 -1 -1 -0 -1 -0 -0
2 1 1 2 2 2 2 2 2 2 2 2 2 2 2 3 4 4 5 4 4 2 1 0 0 -0 -1 -1 -1 -1 0 1 2 1 -0 -0 -1 -1 -0 -0 -0 -0 -1
3 2 2 2 2 2 1 2 2 2 2 2 2 2 2 2 2 2 3 4 4 3 2 1 -0 -0 -1 -1 -1 -0 0 2 2 2 2 1 -0 0 -0 0 -0 -0 0
3 2 2 1 2 1 1 1 2 2 2 2 2 2 2 2 1 1 3 4 5 4 3 2 0 0 -1 -1 -1 -0 0 2 3 3 2 2 1 1 1 1 0 0 -0
2 2 2 2 1 1 1 1 2 2 1 1 1 1 1 1 1 1 2 2 3 6 5 3 3 0 -0 -0 -1 -0 0 2 2 3 3 3 2 2 1 1 1 1 1
1 1 2 1 1 1 1 1 1 1 1 1 1 1 2 2 1 1 1 2 1 3 5 2 2 1 1 1 -1 1 1 2 3 3 3 3 3 3 2 3 2 2 2
1 1 1 1 1 1 1 1 1 1 1 2 1 2 2 1 1 1 2 2 2 2 4 3 2 2 3 3 2 2 2 2 3 3 3 3 4 4 4 4 3 3 2
1 1 1 1 1 1 1 1 2 1 1 2 2 2 2 1 1 1 1 2 2 1 3 4 3 3 4 3 2 3 3 3 3 4 4 4 5 5 5 4 4 4 4
2 1 1 1 1 1 1 1 1 1 1 1 1 2 1 2 2 2 1 2 1 1 2 3 4 3 3 3 4 3 5 4 3 3 4 4 4 4 5 6 6 6 6
2 2 1 1 1 1 1 1 1 1 1 2 1 1 1 1 2 2 2 2 1 2 2 3 4 4 4 3 4 5 5 4 4 3 4 5 5 5 5 6 6 6 7
1 1 1 1 1 1 2 1 1 1 1 2 1 1 1 2 2 2 1 1 2 2 3 3 4 4 4 4 5 5 6 5 5 5 6 6 6 6 5 5 4 5 7
2 1 2 2 2 3 9 7 3 1 1 2 2 2 2 3 3 4 4 4 2 2 2 3 3 4 4 3 4 5 5 6 8 5 7 8 6 8 7 6 7 6 6
2 2 2 3 3 3 10 9 7 2 2 2 2 2 2 2 2 1 5 5 5 5 3 2 3 3 3 3 3 4 4 4 6 6 6 9 8 9 8 7 7 7 7
3 3 3 3 3 4 10 9 8 2 2 1 1 2 3 3 3 2 2 2 2 1 1 1 1 1 1 1 2 3 5 6 6 6 6 8 8 8 8 7 8 8 7
3 4 3 4 3 3 10 10 5 1 1 2 2 2 3 3 9 8 2 2 3 4 7 7 7 7 8 8 5 4 5 5 7 6 6 6 8 7 7 7 7 8 9
3 3 4 4 6 2 10 10 4 2 2 3 3 4 8 6 11 9 3 3 4 4 4 4 5 7 6 7 7 3 4 5 6 7 4 6 7 7 6 7 8 8 8